Regional Weather Roundup
Issued by NWS Wakefield, VA

Home | Current Version | Previous Version | Text Only | Print | Product List | Glossary On
Versions: 1 2 3 4 5 6 7 8 9 10 11 12 13 14 15 16 17 18 19 20 21 22 23 24 25 26 27
000
ASUS41 KAKQ 282215
RWRAKQ

REGIONAL WEATHER ROUNDUP
NATIONAL WEATHER SERVICE WAKEFIELD VA
600 PM EDT TUE MAR 28 2017

Note: "fair" indicates few or no clouds below 12,000 feet with no
significant weather and/or obstructions to visibility. * = Denotes
station may not report precipitation (e.g., rain,snow,etc.),
thunder or fog.

VAZ042-051-052>054-056-282300-
NORTHERN VIRGINIA

CITY           SKY/WX    TMP DP  RH WIND       PRES   REMARKS
WASH NATIONAL  PTSUNNY   72  54  53 NW13      29.84R
DULLES         CLOUDY    68  54  60 NW6       29.85R
FORT BELVOIR   LGT RAIN  72  54  53 NW7       29.84R
QUANTICO       LGT RAIN  64  57  78 CALM      29.85R
FREDERICKSBRG* MOSUNNY   70  57  63 N3        29.83S
STAFFORD*      PTSUNNY   67  59  74 CALM      29.88S
WARRENTON      CLOUDY    66  60  79 SW3       29.85R
CULPEPER*      CLOUDY    65  64  94 CALM      29.86S
MANASSAS*        N/A    N/A N/A N/A N9        29.85R
LEESBURG*      LGT RAIN  66  63  88 W5        29.86R
WINCHESTER     PTSUNNY   64  54  68 NW7       29.85S
FRONT ROYAL*   MOCLDY    63  59  88 CALM      29.85S
LURAY*         CLOUDY    68  59  73 W3        29.86R
$$

VAZ048-049-060>072-079>083-282300-
CENTRAL AND SOUTH CENTRAL VIRGINIA

CITY           SKY/WX    TMP DP  RH WIND       PRES   REMARKS
RICHMOND       PTSUNNY   68  59  73 S8        29.83S
CHESTERFIELD*  CLOUDY    70  46  43 E5        29.85R
PETERSBURG*    MOSUNNY   72  55  54 W9        29.84S
HANOVER        PTSUNNY   72  54  53 W7        29.84R
TAPPAHANNOCK*  CLOUDY    66  56  69 CALM      29.85R
QUINTON*       FAIR      71  57  61 SW6       29.82S
CHARLOTTSVILLE CLOUDY    66  57  72 NE8       29.85R
GORDONSVILLE*  CLOUDY    63  60  92 W5        29.86R
ORANGE*        CLOUDY    64  59  82 CALM      29.87R
LOUISA*        DRIZZLE   66  63  88 W5        29.85R
BUMPASS*       CLOUDY    63  63  99 W6        29.84S
FARMVILLE*     CLOUDY    74  56  52 NE3       29.83R
CREWE*         FAIR      72  57  60 W3        29.85R
FORT PICKETT*  FAIR     N/A N/A N/A SW6       29.85S
CHASE CITY*    MOCLDY    67  63  86 CALM      29.86F
CLARKSVILLE*   FAIR      70  55  60 NW5       29.86S
SOUTH HILL*    SUNNY     68  58  70 W5        29.91S
LAWRENCEVILLE* FAIR      70  55  58 W3        29.85S
EMPORIA*       MOSUNNY   70  55  60 W7        29.86F
$$

VAZ088>098-282300-
SOUTHEAST VIRGINIA

CITY           SKY/WX    TMP DP  RH WIND       PRES   REMARKS
NORFOLK        CLOUDY    74  59  59 SW12      29.83R
VIRGINIA BEACH CLOUDY    72  59  63 W8        29.82S
NORFOLK NAVAL  LGT RAIN  73  59  61 SW9       29.85R
WEST POINT*    CLOUDY    72  56  58 SW8       29.83S
SALUDA*        CLOUDY    64  58  81 N9        29.83R
NEWPORT NEWS   PTSUNNY   67  60  78 SE5       29.84R
LANGLEY AFB    LGT RAIN  63  63 100 CALM      29.84R FOG
FORT EUSTIS    SUNNY     66  61  82 CALM      29.81R
WILLIAMSBURG*  PTSUNNY   75  57  53 CALM      29.84R
HR EXEC AP*    FAIR      73  59  60 SW7       29.81S
FRANKLIN*      LGT RAIN  72  58  61 SW10      29.84S
US460-WAKEFLD  PTSUNNY   75  57  53 W8        29.83S
$$

VAZ020-022-025-037-045-282300-
WEST CENTRAL AND SOUTHWEST VIRGINIA

CITY           SKY/WX    TMP DP  RH WIND       PRES   REMARKS
STAUNTON*      CLOUDY    66  54  65 E3        29.89R
WAYNESBORO*    CLOUDY    68  52  55 NW3       29.87S
HOT SPRINGS VA CLOUDY    54  43  66 W9        29.96R
LYNCHBURG      PTSUNNY   72  48  42 W8        29.88R
DANVILLE       SUNNY     74  55  51 W10       29.87R
SOUTH BOSTON*  CLOUDY    68  59  72 SW3       29.87S
MARTINSVILLE   CLOUDY    70  50  49 NW9       29.93R
ROANOKE        PTSUNNY   70  48  45 NW17      29.91R
BLACKSBURG     CLOUDY    64  51  63 W9G17     29.98R
DUBLIN*        CLOUDY    63  51  65 NW12      29.98S
MARION*        CLOUDY    61  50  66 W10       30.02R
HILLSVILLE*    CLOUDY    60  50  69 NW13G20   29.97R
RICHLANDS*     CLOUDY    58  50  74 NW5       30.01R
WISE*          CLOUDY    59  46  63 NW6       30.03R
ABINGDON*      CLOUDY    64  51  62 NW8       30.00R
$$

MDZ021>025-VAZ099-100-282300-
SOUTHERN MARYLAND AND THE DELMARVA PENINSULA

CITY           SKY/WX    TMP DP  RH WIND       PRES   REMARKS
PATUXENT RIVER PTSUNNY   66  62  87 SW3       29.83R
BAY BRIDGE APT SUNNY     66  55  68 N8        29.83S
LEONARDTOWN    CLOUDY    64  59  82 CALM      29.85R
DOVER          PTSUNNY   57  57 100 VRB6      29.80S
GEORGETOWN     MOSUNNY   69  57  65 W8        29.82R
EASTON         MOSUNNY   72  55  56 N7        29.86R
CAMBRIDGE      SUNNY     66  59  77 SW3       29.83R
SALISBURY      MOSUNNY   68  58  70 W8        29.82S
OCEAN CITY     PTSUNNY   57  51  80 S6        29.82R
WALLOPS ISLAND MOSUNNY   70  58  65 SW9       29.83S
ACCOMACK*      SUNNY     70  57  63 W6        29.84R
$$

NCZ012>017-030>032-282300-
NORTH CENTRAL AND EASTERN NORTH CAROLINA

CITY           SKY/WX    TMP DP  RH WIND       PRES   REMARKS
ROANOKE RAPIDS FAIR      64  61  88 SW3       29.86S
RALEIGH        PTSUNNY   75  52  44 VRB5      29.86R
ELIZABETH CITY MOSUNNY   69  59  70 SW10      29.86R
AHOSKIE*       LGT RAIN  64  62  91 CALM      29.86F
EDENTON*       MOSUNNY   72  60  66 CALM      29.86S
CURRITUCK*     MOSUNNY   72  59  64 SW8       29.85R
KILL DEVIL HLS NOT AVBL
MANTEO         MOSUNNY   65  60  81 SW15      29.87S
CAPE HATTERAS  PTSUNNY   69  62  78 S5        29.89R HAZE
TARBORO*       NOT AVBL
GOLDSBORO      CLOUDY    71  62  74 N5        29.85R
WASHINGTON     CLOUDY    73  62  68 SW3       29.86S
GREENVILLE     CLOUDY    73  61  64 SW7       29.88S
NEW BERN       CLOUDY    67  64  90 S7        29.87F
WILMINGTON     SUNNY     76  60  57 S14       29.85F
$$

VAZ048-282300-
ELSEWHERE

CITY           SKY/WX    TMP DP  RH WIND       PRES   REMARKS
HARRISBURG PA  LGT RAIN  55  54  96 NW6       29.86R
BALTIMORE      PTSUNNY   67  56  67 NW5       29.83R
ANNAPOLIS      MOSUNNY   68  54  60 NW6       29.83R
ANDREWS AFB    MOSUNNY   71  53  52 NW12      29.83R
PHILADELPHIA   LGT RAIN  52  50  93 NE8       29.85S FOG
HENDERSON NC   SUNNY     70  52  52 W3        29.87S
GREENSBORO     PTSUNNY   75  50  41 NW17      29.88R
ROCKY MOUNT    MOSUNNY   76  57  51 W10       29.85R
$$

VAZ100-282300-
MARINE

STATION/POSITION TIME  TEMP    WIND        PRES    WAVE   SWELL
                       AIR SEA DIR/SP/G            HT/PER HT/PER
                 (UTC) (F)     (DEG/KT/KT) (MB)    (FT/S) (FT/S)
CAPE MAY NJ      2148   58 46  110/  5/  5 1009.2R
LEWES DE         2148   69 45  260/  8/ 11 1009.3R
OCEAN-CITY-INLET 2148          220/  8/  9 1010.3R
WACHAPREAGUE VA  2148   71 60  270/  3/  6 1009.9R
THOMAS POINT MD  2200   63 47   40/  8/  8   N/A
GOOSES REEF MD   2200   52 49  160/  4/  6 1010.9    0
COVE POINT MD    2148   61     170/  1/  1 1010.8R
SOLOMONS ISLAND  2148   58 48  100/  3/  4   N/A
BISHOPS HEAD MD  2148   57 54  250/  5/  6 1010.6R
PINEY POINT MD   2148          340/  4/  4   N/A
POTOMAC MD       2200   56 49   CALM  /  2 1009.5    0
CAMBRIDGE MD     2148   68 48  240/  3/  5 1009.1F
LEWISETTA VA     2148   62 53   70/  3/  3 1010.0R
RAPPAHANNOCK LGT 2148          140/  4/  5 1010.9R
STINGRAY PT      2150   56     130/  4/  6 1010.5R
YORK RVR RNG VA  2148   65     200/ 11/ 13 1009.1F
YORKTOWN VA      2148   64 52  160/  4/  5 1009.6S
JAMESTOWN VA     2200   63 56  310/  4/  4   N/A     0
DOMINION TERM VA 2148   68     350/  5/  7 1010.2R
KIPTOPEKE VA     2148      52  220/  3/  4   N/A
CHES BAY BRIDGE  2148   69 52  250/ 10/ 11 1009.9R
CAPE HENRY VA    2148   70     230/  5/  6   N/A
WILLOUBY STN VA  2148   65     330/ 10/ 12 1011.3R
S CRANEY ISL VA  2148   72     230/  6/  9 1009.8S
CAPE HENRY BUOY  2142      51                N/A     3/ 9   2/11
CAPE CHARLES BUO 2151      48                N/A     3/ 9   2/11
OFFSHORE WE BUOY 2151      51                N/A     4/10   2/11
DUCK PIER NC     2148   67 48  200/  9/ 12 1010.5R
44100 DUCK FRF   2135      53                N/A     4/ 9   2/11
44056 DUCK FRF   2130      50                N/A     3/10   2/17
OREGON INLET NC  2148          210/ 12/ 14 1011.4S
HATTERAS NC      2148   65 63  160/  4/  5 1011.8R
CAPE LOOKOUT NC  2200   68     200/  8/ 10 1011.6R
$$




USA.gov is the U.S. government's official web portal to all federal, state and local government web resources and services.